Location: Canazei
(46.4667°N, 11.7667°E)
Time: 16:56:15
(UTC+00:00)

Cosmos 1900 - Pass Details

Date: 21 April 2021
Orbit: 686 x 736 km, 66.1° (Epoch: 11 May)

Event Time Altitude Azimuth Distance (km) Brightness Sun altitude
Exits shadow 03:04:02 12° 208° (SSW) 2,084 6.2 -11.9°
Maximum altitude 03:08:45 80° 122° (ESE) 748 4.5 -11.2°
Drops below altitude 10° 03:13:51 10° 36° (NE) 2,227 8.1 -10.5°
Sets 03:16:12 0° 36° (NE) 3,145 9.0 -10.1°
